DW6356 Weather Reports


time (UTC)temp
F
wind
direction
speed
knots
gust
knots
rain 1hr
in
rain 24hr
in
rain mn
in
humidity
%
barometer
mb
20260507190038 51 283 0.0 2.6 0.09 0.28 0.28 3 1015.7
20260507184536 51 310 0.0 5.2 0.09 0.26 0.26 7 1015.6
20260507183037 51 264 0.9 3.5 0.11 0.22 0.22 13 1015.2
20260507181525 51 307 0.0 3.5 0.12 0.19 0.19 18 1015.1
20260507180021 52 274 0.0 0.9 0.16 0.18 0.18 25 1014.6
20260507174517 52 120 0.0 4.3 0.17 0.17 0.17 39 1014.3
20260507173013 52 270 0.0 1.7 0.10 0.10 0.10 57 1014.1
20260507171510 53 271 0.0 4.3 0.06 0.06 0.06 85 1013.7
20260507170006 55 333 0.0 1.7 0.02 0.02 0.02 91 1013.4
20260507164508 57 99 0.0 4.3 0.00 0.00 0.00 82 1013.1
20260507163004 62 307 2.6 7.8 0.00 0.00 0.00 70 1012.6
20260507161504 64 349 0.0 3.5 0.00 0.00 0.00 65 1012.0
20260507160004 65 151 0.0 1.7 0.00 0.00 0.00 60 1011.7
20260507154503 67 136 0.0 0.9 0.00 0.00 0.00 57 1011.6
20260507153001 69 115 0.0 2.6 0.00 0.00 0.00 52 1011.4
20260507151501 70 151 0.9 5.2 0.00 0.00 0.00 51 1011.4
20260507150100 70 158 0.9 5.2 0.00 0.00 0.00 52 1011.5
20260507144603 69 150 0.9 4.3 0.00 0.00 0.00 52 1011.7
20260507143110 69 47 1.7 5.2 0.00 0.00 0.00 53 1011.7
20260507141613 68 143 0.9 4.3 0.00 0.00 0.00 55 1011.8
20260507140054 69 143 0.0 4.3 0.00 0.00 0.00 57 1011.8
20260507134554 69 133 0.9 4.3 0.00 0.00 0.00 56 1011.9
20260507133051 68 127 0.9 4.3 0.00 0.00 0.00 59 1012.0
20260507131602 68 142 0.0 5.2 0.00 0.00 0.00 60 1012.1
20260507130048 68 79 0.9 3.5 0.00 0.00 0.00 63 1012.4
20260507124548 68 151 1.7 6.1 0.00 0.00 0.00 64 1012.3
20260507123103 69 105 0.0 4.3 0.00 0.00 0.00 63 1012.5
20260507121546 69 111 1.7 5.2 0.00 0.00 0.00 61 1012.6
20260507120044 68 56 0.0 3.5 0.00 0.00 0.00 64 1012.7
20260507114541 67 72 0.9 6.1 0.00 0.00 0.00 65 1012.7
20260507113038 66 59 0.0 1.7 0.00 0.00 0.00 67 1012.8
20260507111539 66 44 0.0 3.5 0.00 0.00 0.00 66 1012.9
20260507110038 66 37 0.0 1.7 0.00 0.00 0.00 68 1012.9
20260507104539 66 288 0.0 2.6 0.00 0.00 0.00 69 1013.0
20260507103036 66 60 0.0 1.7 0.00 0.00 0.00 68 1013.1
20260507101534 66 53 0.9 2.6 0.00 0.00 0.00 70 1013.2
20260507100042 65 49 0.0 3.5 0.00 0.00 0.00 70 1013.3
20260507094533 65 39 0.0 1.7 0.00 0.00 0.00 70 1013.3
20260507093030 64 158 0.9 4.3 0.00 0.00 0.00 72 1013.1
20260507091534 65 53 0.0 1.7 0.00 0.00 0.00 73 1012.9
20260507090027 65 222 0.0 3.5 0.00 0.00 0.00 73 1013.0
20260507084525 64 41 0.0 4.3 0.00 0.00 0.00 74 1012.9
20260507083022 64 40 0.0 1.7 0.00 0.00 0.00 74 1012.8
20260507081522 63 110 0.0 1.7 0.00 0.00 0.00 73 1012.8
20260507080018 63 52 0.0 1.7 0.00 0.00 0.00 74 1012.6
20260507074516 62 34 0.0 0.9 0.00 0.00 0.00 77 1012.5
20260507073014 62 44 0.0 0.9 0.00 0.00 0.00 78 1012.3
20260507071520 61 44 0.0 0.9 0.00 0.00 0.00 79 1012.2
20260507070011 60 40 0.0 0.9 0.00 0.00 0.00 79 1012.0
20260507064506 60 360 0.0 0.0 0.00 0.00 0.00 83 1011.9
20260507063004 58 359 0.0 0.0 0.00 0.00 0.00 85 1011.9
20260507061503 58 360 0.0 0.0 0.00 0.00 0.00 86 1011.8
20260507060001 57 360 0.0 0.0 0.00 0.00 0.00 87 1011.7
20260507054608 56 340 0.0 0.0 0.00 0.00 0.00 89 1011.5
20260507053109 55 340 0.0 0.0 0.00 0.00 0.00 90 1011.3
20260507051657 54 339 0.0 0.0 0.00 0.00 0.00 91 1011.2
20260507050054 54 338 0.0 0.0 0.00 0.00 0.00 90 1011.0
20260507044557 54 338 0.0 0.0 0.00 0.00 0.00 91 1010.8
20260507043052 54 338 0.0 0.0 0.00 0.00 0.00 91 1010.6
20260507041551 54 339 0.0 0.0 0.00 0.00 0.00 91 1010.4
20260507040046 54 338 0.0 0.0 0.00 0.00 0.00 90 1010.1
20260507034544 54 338 0.0 0.0 0.00 0.00 0.00 89 1009.9
20260507033042 54 338 0.0 0.0 0.00 0.00 0.00 88 1009.8
20260507031538 55 339 0.0 0.9 0.00 0.00 0.00 86 1009.9
20260507030038 56 339 0.0 0.0 0.00 0.00 0.00 85 1009.9
20260507024534 57 338 0.0 0.9 0.00 0.00 0.00 83 1010.0
20260507023030 58 346 0.0 0.9 0.00 0.00 0.00 81 1009.7
20260507021529 58 98 0.0 0.9 0.00 0.00 0.00 81 1009.5
20260507020034 58 152 0.0 0.9 0.00 0.00 0.00 82 1009.4
20260507014527 58 58 0.0 1.7 0.00 0.00 0.00 81 1009.4
20260507013025 58 103 0.0 0.0 0.00 0.00 0.00 81 1009.4
20260507011524 59 85 0.0 0.9 0.00 0.00 0.00 79 1009.6
20260507010025 59 331 0.0 1.7 0.00 0.00 0.00 79 1009.3
20260507004520 59 313 0.0 0.9 0.00 0.00 0.00 79 1009.2
20260507003021 59 91 0.0 0.9 0.00 0.00 0.00 77 1009.2
20260507001517 60 56 0.0 0.9 0.00 0.00 0.00 76 1008.9
20260507000015 60 35 0.0 0.9 0.00 0.00 0.00 77 1008.9
20260506234513 59 326 0.0 5.2 0.00 0.00 0.00 77 1008.6
20260506233013 59 8 0.0 3.5 0.00 0.00 0.00 78 1008.5
20260506231511 59 110 0.0 2.6 0.00 0.00 0.00 78 1008.5
20260506230019 59 148 0.0 3.5 0.00 0.00 0.00 78 1008.4
20260506224508 59 160 0.9 4.3 0.00 0.00 0.00 77 1008.2
20260506223007 59 328 0.9 3.5 0.00 0.00 0.00 77 1008.1
20260506221504 60 323 0.9 7.0 0.00 0.00 0.00 76 1008.4
20260506220133 60 65 0.0 3.5 0.00 0.00 0.00 76 1008.5
20260506214502 60 176 0.9 5.2 0.00 0.00 0.00 76 1008.2
20260506213111 60 18 0.9 5.2 0.00 0.00 0.00 76 1008.0
20260506211559 61 283 0.0 3.5 0.00 0.00 0.00 75 1008.0
20260506210105 61 64 0.9 7.0 0.00 0.00 0.00 74 1007.8
20260506204606 61 207 1.7 7.0 0.00 0.00 0.00 74 1007.4
20260506203056 61 314 0.0 4.3 0.00 0.00 0.00 74 1007.6
20260506201556 61 45 0.9 2.6 0.00 0.00 0.00 74 1007.9
20260506200055 61 226 0.0 6.1 0.00 0.00 0.00 74 1007.9
20260506194555 62 289 0.9 3.5 0.00 0.00 0.00 73 1007.9
20260506193055 62 127 0.9 3.5 0.00 0.00 0.00 72 1007.8
20260506191602 62 326 0.0 3.5 0.00 0.00 0.00 72 1007.8